03-01-2023, 00:00:07,    141,    0.7,    1.7,   0.00,   0.00, 1018.0,   81.6, -999.0
03-01-2023, 00:00:17,    141,    0.5,    1.8,   0.00,   0.00, 1017.9,   81.4, -999.0
03-01-2023, 00:00:27,    133,    0.0,    1.7,   0.00,   0.00, 1017.8,   81.2, -999.0
03-01-2023, 00:00:37,    141,    0.8,    1.7,   0.00,   0.00, 1017.9,   81.7, -999.0
03-01-2023, 00:00:47,    141,    0.0,    1.7,   0.00,   0.00, 1017.8,   81.4, -999.0
03-01-2023, 00:00:57,    141,    0.3,    1.7,   0.00,   0.00, 1017.9,   81.9, -999.0
03-01-2023, 00:01:07,    141,    0.1,    1.8,   0.00,   0.00, 1017.9,   82.1, -999.0
03-01-2023, 00:01:17,    142,    0.0,    1.8,   0.00,   0.00, 1017.8,   82.1, -999.0
03-01-2023, 00:01:27,    141,    0.1,    1.7,   0.00,   0.00, 1017.8,   82.0, -999.0
03-01-2023, 00:01:37,    140,    0.0,    1.7,   0.00,   0.00, 1017.8,   81.8, -999.0
03-01-2023, 00:01:47,    141,    0.0,    1.8,   0.00,   0.00, 1017.8,   81.8, -999.0
03-01-2023, 00:01:57,    141,    0.3,    1.8,   0.00,   0.00, 1017.9,   82.0, -999.0
03-01-2023, 00:02:07,    141,    0.2,    1.9,   0.00,   0.00, 1017.9,   82.1, -999.0
03-01-2023, 00:02:17,    141,    0.0,    1.8,   0.00,   0.00, 1017.8,   81.8, -999.0
03-01-2023, 00:02:27,    140,    0.0,    1.8,   0.00,   0.00, 1017.8,   81.8, -999.0
03-01-2023, 00:02:37,    140,    0.4,    1.9,   0.00,   0.00, 1017.9,   81.9, -999.0
03-01-2023, 00:02:47,    141,    0.1,    1.8,   0.00,   0.00, 1017.8,   81.8, -999.0
03-01-2023, 00:02:57,    140,    0.1,    1.9,   0.00,   0.00, 1017.8,   81.9, -999.0
03-01-2023, 00:03:07,    140,    0.4,    2.0,   0.00,   0.00, 1017.9,   82.0, -999.0
03-01-2023, 00:03:17,    140,    0.2,    2.0,   0.00,   0.00, 1017.9,   81.9, -999.0
03-01-2023, 00:03:27,    140,    0.0,    1.9,   0.00,   0.00, 1017.8,   81.5, -999.0
03-01-2023, 00:03:37,    140,    0.0,    1.9,   0.00,   0.00, 1017.8,   81.5, -999.0
03-01-2023, 00:03:47,    140,    0.0,    1.8,   0.00,   0.00, 1017.8,   81.7, -999.0
03-01-2023, 00:03:57,    140,    0.1,    1.9,   0.00,   0.00, 1017.9,   81.6, -999.0
03-01-2023, 00:04:07,    140,    0.1,    2.0,   0.00,   0.00, 1017.9,   81.7, -999.0
03-01-2023, 00:04:16,    140,    0.1,    2.0,   0.00,   0.00, 1017.9,   81.8, -999.0
03-01-2023, 00:04:27,    140,    0.1,    2.0,   0.00,   0.00, 1017.9,   81.6, -999.0
03-01-2023, 00:04:37,    152,    0.3,    2.0,   0.00,   0.00, 1017.9,   81.5, -999.0
03-01-2023, 00:04:47,    152,    0.3,    1.9,   0.00,   0.00, 1017.9,   81.2, -999.0
03-01-2023, 00:04:57,    152,    0.0,    1.7,   0.00,   0.00, 1017.8,   80.9, -999.0
03-01-2023, 00:05:07,    152,    0.1,    1.8,   0.00,   0.00, 1017.9,   81.2, -999.0
03-01-2023, 00:05:17,    148,    0.7,    1.8,   0.00,   0.00, 1017.9,   81.4, -999.0
03-01-2023, 00:05:26,    148,    0.8,    1.8,   0.00,   0.00, 1017.9,   81.5, -999.0
03-01-2023, 00:05:37,    147,    0.4,    1.9,   0.00,   0.00, 1017.9,   81.7, -999.0
03-01-2023, 00:05:47,    140,    0.0,    1.7,   0.00,   0.00, 1017.8,   81.5, -999.0
03-01-2023, 00:05:57,    147,    0.2,    1.7,   0.00,   0.00, 1017.9,   81.7, -999.0
03-01-2023, 00:06:06,    148,    0.0,    1.7,   0.00,   0.00, 1017.8,   81.5, -999.0
03-01-2023, 00:06:17,    147,    0.0,    1.7,   0.00,   0.00, 1017.8,   81.6, -999.0
03-01-2023, 00:06:27,    147,    0.0,    1.7,   0.00,   0.00, 1017.8,   81.9, -999.0
03-01-2023, 00:06:36,    139,    0.4,    1.8,   0.00,   0.00, 1017.9,   82.2, -999.0
03-01-2023, 00:06:46,    139,    0.0,    1.7,   0.00,   0.00, 1017.7,   82.0, -999.0
03-01-2023, 00:06:57,    140,    0.0,    1.6,   0.00,   0.00, 1017.7,   82.0, -999.0
03-01-2023, 00:07:07,    139,    0.0,    1.7,   0.00,   0.00, 1017.7,   82.0, -999.0
03-01-2023, 00:07:16,    144,    0.1,    1.7,   0.00,   0.00, 1017.8,   82.2, -999.0
03-01-2023, 00:07:26,    143,    0.0,    1.7,   0.00,   0.00, 1017.7,   82.0, -999.0
03-01-2023, 00:07:37,    143,    0.0,    1.7,   0.00,   0.00, 1017.7,   81.9, -999.0
03-01-2023, 00:07:46,    143,    0.0,    1.7,   0.00,   0.00, 1017.7,   82.1, -999.0
03-01-2023, 00:07:56,    143,    0.2,    1.7,   0.00,   0.00, 1017.8,   82.4, -999.0
03-01-2023, 00:08:06,    143,    0.0,    1.7,   0.00,   0.00, 1017.7,   82.2, -999.0
03-01-2023, 00:08:16,    143,    0.0,    1.7,   0.00,   0.00, 1017.7,   82.2, -999.0
03-01-2023, 00:08:26,    145,    0.2,    1.7,   0.00,   0.00, 1017.8,   82.6, -999.0
03-01-2023, 00:08:36,    144,    0.1,    1.7,   0.00,   0.00, 1017.7,   82.4, -999.0
03-01-2023, 00:08:47,    144,    0.1,    1.8,   0.00,   0.00, 1017.7,   82.5, -999.0
03-01-2023, 00:08:56,    144,    0.0,    1.7,   0.00,   0.00, 1017.7,   82.7, -999.0
03-01-2023, 00:09:06,    144,    0.0,    1.7,   0.00,   0.00, 1017.7,   82.4, -999.0
03-01-2023, 00:09:16,    145,    0.0,    1.7,   0.00,   0.00, 1017.7,   82.5, -999.0
03-01-2023, 00:09:26,    144,    0.0,    1.8,   0.00,   0.00, 1017.7,   82.6, -999.0
03-01-2023, 00:09:36,    144,    0.0,    1.8,   0.00,   0.00, 1017.7,   82.7, -999.0
03-01-2023, 00:09:46,    144,    0.0,    1.7,   0.00,   0.00, 1017.7,   82.6, -999.0
03-01-2023, 00:09:56,    144,    0.0,    1.8,   0.00,   0.00, 1017.6,   82.7, -999.0
03-01-2023, 00:10:06,    144,    0.0,    1.8,   0.00,   0.00, 1017.6,   82.5, -999.0
03-01-2023, 00:10:16,    144,    0.0,    1.8,   0.00,   0.00, 1017.6,   82.5, -999.0
03-01-2023, 00:10:26,    144,    0.0,    1.7,   0.00,   0.00, 1017.6,   82.2, -999.0
03-01-2023, 00:10:36,    143,    0.0,    1.8,   0.00,   0.00, 1017.7,   82.2, -999.0
03-01-2023, 00:10:46,    142,    0.3,    1.9,   0.00,   0.00, 1017.8,   82.5, -999.0
03-01-2023, 00:10:56,    142,    0.0,    1.8,   0.00,   0.00, 1017.7,   82.3, -999.0
03-01-2023, 00:11:06,    141,    0.0,    1.8,   0.00,   0.00, 1017.6,   82.3, -999.0
03-01-2023, 00:11:16,    142,    0.0,    1.8,   0.00,   0.00, 1017.6,   82.1, -999.0
03-01-2023, 00:11:26,    142,    0.0,    1.7,   0.00,   0.00, 1017.7,   82.1, -999.0
03-01-2023, 00:11:36,    142,    0.0,    1.6,   0.00,   0.00, 1017.7,   82.0, -999.0
03-01-2023, 00:11:46,    142,    0.0,    1.7,   0.00,   0.00, 1017.6,   81.8, -999.0
03-01-2023, 00:11:56,    141,    0.0,    1.7,   0.00,   0.00, 1017.6,   81.9, -999.0
03-01-2023, 00:12:06,    142,    0.0,    1.7,   0.00,   0.00, 1017.6,   82.0, -999.0
03-01-2023, 00:12:16,    142,    0.0,    1.6,   0.00,   0.00, 1017.7,   82.1, -999.0
03-01-2023, 00:12:26,    141,    0.0,    1.7,   0.00,   0.00, 1017.7,   82.2, -999.0
03-01-2023, 00:12:36,    142,    0.5,    1.6,   0.00,   0.00, 1017.8,   82.5, -999.0
03-01-2023, 00:12:46,    141,    0.0,    1.6,   0.00,   0.00, 1017.7,   82.4, -999.0
03-01-2023, 00:12:57,    142,    0.0,    1.6,   0.00,   0.00, 1017.7,   82.5, -999.0
03-01-2023, 00:13:06,    143,    0.5,    1.6,   0.00,   0.00, 1017.7,   82.7, -999.0
03-01-2023, 00:13:16,    143,    0.1,    1.6,   0.00,   0.00, 1017.7,   82.7, -999.0
03-01-2023, 00:13:26,    143,    0.1,    1.5,   0.00,   0.00, 1017.7,   82.6, -999.0
03-01-2023, 00:13:36,    143,    0.0,    1.5,   0.00,   0.00, 1017.7,   82.5, -999.0
03-01-2023, 00:13:46,    161,    0.2,    1.5,   0.00,   0.00, 1017.7,   82.6, -999.0
03-01-2023, 00:13:56,    160,    0.2,    1.6,   0.00,   0.00, 1017.7,   82.7, -999.0
03-01-2023, 00:14:06,    160,    0.0,    1.5,   0.00,   0.00, 1017.7,   82.9, -999.0
03-01-2023, 00:14:16,    160,    0.0,    1.5,   0.00,   0.00, 1017.6,   82.9, -999.0
03-01-2023, 00:14:25,    160,    0.0,    1.5,   0.00,   0.00, 1017.6,   83.0, -999.0
03-01-2023, 00:14:36,    160,    0.0,    1.5,   0.00,   0.00, 1017.7,   83.1, -999.0
03-01-2023, 00:14:46,    160,    0.0,    1.4,   0.00,   0.00, 1017.7,   83.2, -999.0
03-01-2023, 00:14:56,    160,    0.0,    1.6,   0.00,   0.00, 1017.6,   83.4, -999.0
03-01-2023, 00:15:05,    160,    0.0,    1.7,   0.00,   0.00, 1017.7,   83.7, -999.0
03-01-2023, 00:15:16,    160,    0.0,    1.8,   0.00,   0.00, 1017.7,   83.9, -999.0
03-01-2023, 00:15:26,    159,    0.0,    1.8,   0.00,   0.00, 1017.6,   83.8, -999.0
03-01-2023, 00:15:35,    160,    0.0,    1.8,   0.00,   0.00, 1017.6,   83.6, -999.0
03-01-2023, 00:15:45,    160,    0.0,    1.7,   0.00,   0.00, 1017.6,   83.3, -999.0
03-01-2023, 00:15:56,    122,    0.6,    1.8,   0.00,   0.00, 1017.8,   83.4, -999.0
03-01-2023, 00:16:06,    121,    0.4,    1.8,   0.00,   0.00, 1017.8,   83.3, -999.0
03-01-2023, 00:16:15,    121,    0.0,    1.7,   0.00,   0.00, 1017.7,   82.9, -999.0
03-01-2023, 00:16:25,    121,    0.0,    1.6,   0.00,   0.00, 1017.6,   82.9, -999.0
03-01-2023, 00:16:36,    122,    0.0,    1.7,   0.00,   0.00, 1017.7,   82.9, -999.0
03-01-2023, 00:16:45,    143,    0.1,    1.8,   0.00,   0.00, 1017.7,   83.1, -999.0
03-01-2023, 00:16:55,    142,    0.1,    1.7,   0.00,   0.00, 1017.7,   83.1, -999.0
03-01-2023, 00:17:05,    142,    0.0,    1.7,   0.00,   0.00, 1017.6,   82.8, -999.0
03-01-2023, 00:17:16,    142,    0.7,    1.7,   0.00,   0.00, 1017.8,   83.0, -999.0
03-01-2023, 00:17:25,    141,    0.2,    1.7,   0.00,   0.00, 1017.7,   83.0, -999.0
03-01-2023, 00:17:35,    141,    0.6,    1.7,   0.00,   0.00, 1017.8,   83.1, -999.0
03-01-2023, 00:17:45,    138,    0.3,    1.8,   0.00,   0.00, 1017.7,   83.1, -999.0
03-01-2023, 00:17:55,    137,    0.0,    1.7,   0.00,   0.00, 1017.7,   82.9, -999.0
03-01-2023, 00:18:05,    138,    0.1,    1.6,   0.00,   0.00, 1017.7,   83.0, -999.0
03-01-2023, 00:18:15,    137,    0.3,    1.6,   0.00,   0.00, 1017.7,   82.9, -999.0
03-01-2023, 00:18:25,    138,    0.0,    1.6,   0.00,   0.00, 1017.7,   82.7, -999.0
03-01-2023, 00:18:35,    138,    0.0,    1.6,   0.00,   0.00, 1017.6,   82.8, -999.0
03-01-2023, 00:18:45,    160,    0.7,    1.6,   0.00,   0.00, 1017.8,   83.2, -999.0
03-01-2023, 00:18:55,    160,    0.0,    1.6,   0.00,   0.00, 1017.7,   83.1, -999.0
03-01-2023, 00:19:05,    160,    0.1,    1.5,   0.00,   0.00, 1017.7,   83.2, -999.0
03-01-2023, 00:19:15,    159,    0.1,    1.6,   0.00,   0.00, 1017.7,   83.4, -999.0
03-01-2023, 00:19:25,    159,    0.0,    1.4,   0.00,   0.00, 1017.6,   83.3, -999.0
03-01-2023, 00:19:35,    159,    0.0,    1.5,   0.00,   0.00, 1017.6,   83.5, -999.0
03-01-2023, 00:19:45,    159,    0.0,    1.6,   0.00,   0.00, 1017.6,   83.6, -999.0
03-01-2023, 00:19:55,    159,    0.0,    1.5,   0.00,   0.00, 1017.6,   83.7, -999.0
03-01-2023, 00:20:05,    159,    0.1,    1.6,   0.00,   0.00, 1017.6,   83.7, -999.0
03-01-2023, 00:20:15,    159,    0.3,    1.6,   0.00,   0.00, 1017.6,   83.7, -999.0
03-01-2023, 00:20:25,    159,    0.2,    1.6,   0.00,   0.00, 1017.6,   83.7, -999.0
03-01-2023, 00:20:35,    159,    0.2,    1.7,   0.00,   0.00, 1017.6,   84.0, -999.0
03-01-2023, 00:20:45,    159,    0.3,    1.7,   0.00,   0.00, 1017.6,   83.9, -999.0
03-01-2023, 00:20:55,    150,    0.4,    1.7,   0.00,   0.00, 1017.6,   83.8, -999.0
03-01-2023, 00:21:05,    150,    0.0,    1.6,   0.00,   0.00, 1017.6,   83.7, -999.0
03-01-2023, 00:21:15,    150,    0.0,    1.5,   0.00,   0.00, 1017.6,   83.5, -999.0
03-01-2023, 00:21:25,    150,    0.2,    1.5,   0.00,   0.00, 1017.6,   83.7, -999.0
03-01-2023, 00:21:35,    150,    0.8,    1.6,   0.00,   0.00, 1017.7,   84.0, -999.0
03-01-2023, 00:21:45,    152,    1.4,    1.7,   0.00,   0.00, 1017.7,   84.0, -999.0
03-01-2023, 00:21:55,    152,    1.1,    1.6,   0.00,   0.00, 1017.8,   83.8, -999.0
03-01-2023, 00:22:05,    151,    0.7,    1.6,   0.00,   0.00, 1017.7,   83.7, -999.0
03-01-2023, 00:22:15,    151,    0.2,    1.5,   0.00,   0.00, 1017.7,   83.6, -999.0
03-01-2023, 00:22:25,    151,    0.0,    1.5,   0.00,   0.00, 1017.6,   83.5, -999.0
03-01-2023, 00:22:35,    151,    0.0,    1.4,   0.00,   0.00, 1017.7,   83.9, -999.0
03-01-2023, 00:22:45,    151,    0.0,    1.5,   0.00,   0.00, 1017.6,   83.9, -999.0
03-01-2023, 00:22:55,    151,    0.0,    1.5,   0.00,   0.00, 1017.6,   83.8, -999.0
03-01-2023, 00:23:05,    151,    0.0,    1.4,   0.00,   0.00, 1017.6,   83.8, -999.0
03-01-2023, 00:23:15,    151,    0.3,    1.5,   0.00,   0.00, 1017.7,   84.2, -999.0
03-01-2023, 00:23:25,    151,    0.6,    1.6,   0.00,   0.00, 1017.7,   84.3, -999.0
03-01-2023, 00:23:35,    151,    0.1,    1.5,   0.00,   0.00, 1017.7,   84.3, -999.0
03-01-2023, 00:23:45,    136,    0.9,    1.6,   0.00,   0.00, 1017.7,   84.4, -999.0
03-01-2023, 00:23:55,    136,    0.0,    1.6,   0.00,   0.00, 1017.6,   84.3, -999.0
03-01-2023, 00:24:04,    136,    0.2,    1.6,   0.00,   0.00, 1017.6,   84.5, -999.0
03-01-2023, 00:24:15,    135,    0.1,    1.7,   0.00,   0.00, 1017.6,   84.6, -999.0
03-01-2023, 00:24:25,    136,    0.0,    1.6,   0.00,   0.00, 1017.6,   84.5, -999.0
03-01-2023, 00:24:34,    136,    0.0,    1.6,   0.00,   0.00, 1017.6,   84.4, -999.0
03-01-2023, 00:24:44,    136,    0.0,    1.6,   0.00,   0.00, 1017.6,   84.3, -999.0
03-01-2023, 00:24:55,    159,    0.3,    1.7,   0.00,   0.00, 1017.7,   84.3, -999.0
03-01-2023, 00:25:05,    158,    0.0,    1.5,   0.00,   0.00, 1017.6,   83.9, -999.0
03-01-2023, 00:25:14,    158,    0.0,    1.6,   0.00,   0.00, 1017.6,   83.9, -999.0
03-01-2023, 00:25:24,    158,    0.0,    1.6,   0.00,   0.00, 1017.6,   84.0, -999.0
03-01-2023, 00:25:35,    157,    0.0,    1.6,   0.00,   0.00, 1017.6,   84.1, -999.0
03-01-2023, 00:25:44,    157,    0.0,    1.6,   0.00,   0.00, 1017.6,   84.1, -999.0
03-01-2023, 00:25:54,    157,    0.0,    1.5,   0.00,   0.00, 1017.6,   83.9, -999.0
03-01-2023, 00:26:06,    157,    0.0,    1.6,   0.00,   0.00, 1017.6,   83.9, -999.0
03-01-2023, 00:26:15,    158,    0.0,    1.6,   0.00,   0.00, 1017.6,   84.1, -999.0
03-01-2023, 00:26:24,    158,    0.2,    1.6,   0.00,   0.00, 1017.7,   84.3, -999.0
03-01-2023, 00:26:34,    157,    0.2,    1.6,   0.00,   0.00, 1017.7,   84.2, -999.0
03-01-2023, 00:26:45,    157,    0.0,    1.6,   0.00,   0.00, 1017.6,   83.9, -999.0
03-01-2023, 00:26:54,    156,    0.1,    1.6,   0.00,   0.00, 1017.6,   84.0, -999.0
03-01-2023, 00:27:04,    157,    0.0,    1.6,   0.00,   0.00, 1017.6,   84.1, -999.0
03-01-2023, 00:27:14,    157,    0.3,    1.6,   0.00,   0.00, 1017.7,   84.5, -999.0
03-01-2023, 00:27:24,    157,    0.0,    1.6,   0.00,   0.00, 1017.6,   84.2, -999.0
03-01-2023, 00:27:34,    140,    0.2,    1.6,   0.00,   0.00, 1017.6,   84.2, -999.0
03-01-2023, 00:27:44,    140,    0.0,    1.7,   0.00,   0.00, 1017.6,   84.4, -999.0
03-01-2023, 00:27:54,    140,    0.0,    1.8,   0.00,   0.00, 1017.6,   84.4, -999.0
03-01-2023, 00:28:04,    140,    0.0,    1.7,   0.00,   0.00, 1017.6,   84.1, -999.0
03-01-2023, 00:28:14,    140,    0.0,    1.7,   0.00,   0.00, 1017.5,   83.9, -999.0
03-01-2023, 00:28:24,    140,    0.1,    1.7,   0.00,   0.00, 1017.6,   83.9, -999.0
03-01-2023, 00:28:34,    164,    0.2,    1.6,   0.00,   0.00, 1017.6,   83.8, -999.0
03-01-2023, 00:28:44,    163,    0.4,    1.6,   0.00,   0.00, 1017.7,   83.7, -999.0
03-01-2023, 00:28:54,    163,    0.0,    1.5,   0.00,   0.00, 1017.6,   83.5, -999.0
03-01-2023, 00:29:04,    163,    0.1,    1.5,   0.00,   0.00, 1017.6,   83.7, -999.0
03-01-2023, 00:29:14,    163,    0.0,    1.5,   0.00,   0.00, 1017.6,   83.6, -999.0
03-01-2023, 00:29:24,    163,    0.0,    1.5,   0.00,   0.00, 1017.5,   83.5, -999.0
03-01-2023, 00:29:34,    163,    0.0,    1.5,   0.00,   0.00, 1017.6,   83.8, -999.0
03-01-2023, 00:29:44,    163,    0.4,    1.6,   0.00,   0.00, 1017.7,   84.2, -999.0
03-01-2023, 00:29:54,    163,    0.0,    1.5,   0.00,   0.00, 1017.6,   83.9, -999.0
03-01-2023, 00:30:04,    163,    0.0,    1.5,   0.00,   0.00, 1017.6,   83.9, -999.0
03-01-2023, 00:30:14,    163,    0.2,    1.5,   0.00,   0.00, 1017.7,   84.2, -999.0
03-01-2023, 00:30:24,    163,    0.2,    1.5,   0.00,   0.00, 1017.6,   84.2, -999.0
03-01-2023, 00:30:34,    162,    0.2,    1.5,   0.00,   0.00, 1017.6,   84.2, -999.0
03-01-2023, 00:30:44,    162,    0.2,    1.5,   0.00,   0.00, 1017.7,   84.4, -999.0
03-01-2023, 00:30:54,    147,    1.5,    1.4,   0.00,   0.00, 1017.7,   84.5, -999.0
03-01-2023, 00:31:04,    157,    1.9,    1.5,   0.00,   0.00, 1017.7,   84.6, -999.0
03-01-2023, 00:31:14,    157,    0.5,    1.5,   0.00,   0.00, 1017.6,   84.5, -999.0
03-01-2023, 00:31:24,    157,    1.1,    1.5,   0.00,   0.00, 1017.6,   84.7, -999.0
03-01-2023, 00:31:34,    157,    1.1,    1.4,   0.00,   0.00, 1017.7,   84.8, -999.0
03-01-2023, 00:31:44,    157,    0.2,    1.5,   0.00,   0.00, 1017.7,   84.8, -999.0
03-01-2023, 00:31:54,    157,    0.0,    1.4,   0.00,   0.00, 1017.6,   84.4, -999.0
03-01-2023, 00:32:04,    157,    0.1,    1.4,   0.00,   0.00, 1017.6,   84.7, -999.0
03-01-2023, 00:32:14,    157,    0.0,    1.4,   0.00,   0.00, 1017.6,   84.8, -999.0
03-01-2023, 00:32:24,    157,    0.2,    1.4,   0.00,   0.00, 1017.6,   85.0, -999.0
03-01-2023, 00:32:34,    157,    0.0,    1.4,   0.00,   0.00, 1017.6,   84.8, -999.0
03-01-2023, 00:32:44,    157,    0.0,    1.4,   0.00,   0.00, 1017.6,   85.1, -999.0
03-01-2023, 00:32:54,    158,    0.2,    1.4,   0.00,   0.00, 1017.6,   85.4, -999.0
03-01-2023, 00:33:03,    157,    0.0,    1.4,   0.00,   0.00, 1017.6,   85.3, -999.0
03-01-2023, 00:33:14,    157,    0.0,    1.4,   0.00,   0.00, 1017.6,   85.0, -999.0
03-01-2023, 00:33:24,    157,    0.0,    1.5,   0.00,   0.00, 1017.5,   84.8, -999.0
03-01-2023, 00:33:34,    157,    0.0,    1.4,   0.00,   0.00, 1017.6,   84.8, -999.0
03-01-2023, 00:33:43,    157,    0.0,    1.4,   0.00,   0.00, 1017.5,   84.9, -999.0
03-01-2023, 00:33:54,    157,    0.0,    1.4,   0.00,   0.00, 1017.5,   84.9, -999.0
03-01-2023, 00:34:04,    157,    0.0,    1.4,   0.00,   0.00, 1017.5,   85.1, -999.0
03-01-2023, 00:34:13,    157,    0.0,    1.4,   0.00,   0.00, 1017.5,   85.1, -999.0
03-01-2023, 00:34:23,    157,    0.1,    1.5,   0.00,   0.00, 1017.6,   85.2, -999.0
03-01-2023, 00:34:34,    157,    0.4,    1.5,   0.00,   0.00, 1017.6,   85.4, -999.0
03-01-2023, 00:34:43,    157,    0.2,    1.4,   0.00,   0.00, 1017.6,   85.2, -999.0
03-01-2023, 00:34:53,    157,    0.0,    1.4,   0.00,   0.00, 1017.5,   85.1, -999.0
03-01-2023, 00:35:04,    157,    0.0,    1.4,   0.00,   0.00, 1017.5,   85.3, -999.0
03-01-2023, 00:35:14,    157,    0.0,    1.4,   0.00,   0.00, 1017.5,   85.4, -999.0
03-01-2023, 00:35:23,    157,    0.0,    1.4,   0.00,   0.00, 1017.5,   85.4, -999.0
03-01-2023, 00:35:33,    157,    0.0,    1.5,   0.00,   0.00, 1017.5,   85.3, -999.0
03-01-2023, 00:35:43,    157,    0.0,    1.3,   0.00,   0.00, 1017.5,   85.4, -999.0
03-01-2023, 00:35:53,    157,    0.0,    1.5,   0.00,   0.00, 1017.5,   85.5, -999.0
03-01-2023, 00:36:03,    157,    0.0,    1.5,   0.00,   0.00, 1017.5,   85.4, -999.0
03-01-2023, 00:36:13,    157,    0.0,    1.4,   0.00,   0.00, 1017.5,   85.2, -999.0
03-01-2023, 00:36:24,    157,    0.0,    1.4,   0.00,   0.00, 1017.5,   85.3, -999.0
03-01-2023, 00:36:33,    157,    0.3,    1.5,   0.00,   0.00, 1017.5,   85.4, -999.0
03-01-2023, 00:36:43,    157,    0.0,    1.5,   0.00,   0.00, 1017.5,   85.0, -999.0
03-01-2023, 00:36:53,    157,    0.0,    1.4,   0.00,   0.00, 1017.4,   85.0, -999.0
03-01-2023, 00:37:03,    157,    0.3,    1.4,   0.00,   0.00, 1017.5,   85.1, -999.0
03-01-2023, 00:37:13,    157,    0.7,    1.5,   0.00,   0.00, 1017.6,   85.3, -999.0
03-01-2023, 00:37:23,    157,    0.1,    1.5,   0.00,   0.00, 1017.5,   85.1, -999.0
03-01-2023, 00:37:33,    157,    0.0,    1.4,   0.00,   0.00, 1017.5,   85.0, -999.0
03-01-2023, 00:37:43,    155,    1.1,    1.5,   0.00,   0.00, 1017.6,   85.3, -999.0
03-01-2023, 00:37:53,    155,    1.1,    1.5,   0.00,   0.00, 1017.6,   85.3, -999.0
03-01-2023, 00:38:03,    179,    0.6,    1.5,   0.00,   0.00, 1017.6,   85.4, -999.0
03-01-2023, 00:38:13,    178,    0.4,    1.5,   0.00,   0.00, 1017.6,   85.4, -999.0
03-01-2023, 00:38:23,    155,    0.9,    1.5,   0.00,   0.00, 1017.6,   85.4, -999.0
03-01-2023, 00:38:33,    156,    0.0,    1.5,   0.00,   0.00, 1017.5,   85.2, -999.0
03-01-2023, 00:38:43,    156,    0.0,    1.5,   0.00,   0.00, 1017.5,   85.3, -999.0
03-01-2023, 00:38:53,    156,    0.0,    1.5,   0.00,   0.00, 1017.4,   85.2, -999.0
03-01-2023, 00:39:03,    156,    0.0,    1.5,   0.00,   0.00, 1017.4,   85.3, -999.0
03-01-2023, 00:39:13,    156,    0.0,    1.5,   0.00,   0.00, 1017.5,   85.4, -999.0
03-01-2023, 00:39:23,    155,    0.0,    1.5,   0.00,   0.00, 1017.4,   85.2, -999.0
03-01-2023, 00:39:33,    156,    0.0,    1.5,   0.00,   0.00, 1017.4,   85.2, -999.0
03-01-2023, 00:39:43,    156,    0.0,    1.4,   0.00,   0.00, 1017.4,   85.1, -999.0
03-01-2023, 00:39:53,    156,    0.0,    1.4,   0.00,   0.00, 1017.5,   85.2, -999.0
03-01-2023, 00:40:03,    156,    0.5,    1.4,   0.00,   0.00, 1017.6,   85.3, -999.0
03-01-2023, 00:40:13,    159,    0.4,    1.6,   0.00,   0.00, 1017.6,   85.2, -999.0
03-01-2023, 00:40:23,    154,    0.4,    1.6,   0.00,   0.00, 1017.5,   85.1, -999.0
03-01-2023, 00:40:33,    154,    0.0,    1.5,   0.00,   0.00, 1017.5,   84.9, -999.0
03-01-2023, 00:40:43,    154,    0.0,    1.5,   0.00,   0.00, 1017.4,   84.8, -999.0
03-01-2023, 00:40:53,    154,    0.0,    1.5,   0.00,   0.00, 1017.4,   84.8, -999.0
03-01-2023, 00:41:03,    154,    0.1,    1.5,   0.00,   0.00, 1017.5,   85.1, -999.0
03-01-2023, 00:41:13,    154,    0.0,    1.4,   0.00,   0.00, 1017.5,   85.1, -999.0
03-01-2023, 00:41:23,    154,    0.3,    1.5,   0.00,   0.00, 1017.5,   85.1, -999.0
03-01-2023, 00:41:33,    154,    0.6,    1.6,   0.00,   0.00, 1017.6,   85.3, -999.0
03-01-2023, 00:41:43,    154,    0.2,    1.6,   0.00,   0.00, 1017.5,   85.1, -999.0
03-01-2023, 00:41:53,    153,    0.0,    1.5,   0.00,   0.00, 1017.4,   84.9, -999.0
03-01-2023, 00:42:03,    154,    0.0,    1.5,   0.00,   0.00, 1017.4,   85.0, -999.0
03-01-2023, 00:42:13,    153,    0.0,    1.6,   0.00,   0.00, 1017.4,   84.9, -999.0
03-01-2023, 00:42:22,    153,    0.0,    1.5,   0.00,   0.00, 1017.4,   84.9, -999.0
03-01-2023, 00:42:33,    153,    0.0,    1.5,   0.00,   0.00, 1017.4,   84.9, -999.0
03-01-2023, 00:42:43,    153,    0.0,    1.6,   0.00,   0.00, 1017.4,   84.8, -999.0
03-01-2023, 00:42:53,    153,    0.0,    1.5,   0.00,   0.00, 1017.4,   84.8, -999.0
03-01-2023, 00:43:02,    153,    0.2,    1.6,   0.00,   0.00, 1017.5,   85.0, -999.0
03-01-2023, 00:43:13,    153,    0.0,    1.5,   0.00,   0.00, 1017.4,   84.7, -999.0
03-01-2023, 00:43:23,    154,    0.0,    1.5,   0.00,   0.00, 1017.4,   84.8, -999.0
03-01-2023, 00:43:32,    153,    0.0,    1.6,   0.00,   0.00, 1017.5,   84.9, -999.0
03-01-2023, 00:43:42,    153,    0.0,    1.5,   0.00,   0.00, 1017.4,   84.6, -999.0
03-01-2023, 00:43:53,    153,    0.0,    1.6,   0.00,   0.00, 1017.4,   84.6, -999.0
03-01-2023, 00:44:02,    153,    0.0,    1.5,   0.00,   0.00, 1017.4,   84.6, -999.0
03-01-2023, 00:44:12,    153,    0.0,    1.6,   0.00,   0.00, 1017.4,   84.6, -999.0
03-01-2023, 00:44:23,    154,    0.0,    1.6,   0.00,   0.00, 1017.4,   84.6, -999.0
03-01-2023, 00:44:33,    153,    0.8,    1.6,   0.00,   0.00, 1017.6,   85.0, -999.0
03-01-2023, 00:44:42,    153,    0.3,    1.6,   0.00,   0.00, 1017.6,   84.8, -999.0
03-01-2023, 00:44:52,    153,    0.0,    1.5,   0.00,   0.00, 1017.5,   84.4, -999.0
03-01-2023, 00:45:03,    153,    0.0,    1.5,   0.00,   0.00, 1017.4,   84.3, -999.0
03-01-2023, 00:45:12,    153,    0.0,    1.5,   0.00,   0.00, 1017.4,   84.3, -999.0
03-01-2023, 00:45:22,    154,    0.2,    1.6,   0.00,   0.00, 1017.5,   84.7, -999.0
03-01-2023, 00:45:32,    153,    0.0,    1.6,   0.00,   0.00, 1017.4,   84.4, -999.0
03-01-2023, 00:45:43,    153,    0.0,    1.6,   0.00,   0.00, 1017.5,   84.5, -999.0
03-01-2023, 00:45:52,    153,    0.2,    1.6,   0.00,   0.00, 1017.5,   84.5, -999.0
03-01-2023, 00:46:02,    156,    0.3,    1.6,   0.00,   0.00, 1017.6,   84.7, -999.0
03-01-2023, 00:46:12,    184,    0.5,    1.6,   0.00,   0.00, 1017.6,   84.7, -999.0
03-01-2023, 00:46:22,    148,    0.7,    1.6,   0.00,   0.00, 1017.5,   84.7, -999.0
03-01-2023, 00:46:32,    147,    0.7,    1.6,   0.00,   0.00, 1017.5,   84.8, -999.0
03-01-2023, 00:46:42,    141,    0.8,    1.6,   0.00,   0.00, 1017.6,   84.9, -999.0
03-01-2023, 00:46:52,    146,    0.4,    1.6,   0.00,   0.00, 1017.6,   84.9, -999.0